Regional Weather Roundup
Issued by NWS Sterling, VA

Home | Current Version | Previous Version | Text Only | Print | Product List | Glossary Off
Versions: 1 2 3 4 5 6 7 8 9 10 11 12 13 14 15 16 17 18 19 20 21 22 23 24 25 26 27 28 29 30 31 32 33 34 35 36 37 38 39 40 41 42 43 44 45 46 47 48 49 50

000
ASUS41 KLWX 250511
RWRLWX

REGIONAL WEATHER ROUNDUP
NATIONAL WEATHER SERVICE BALTIMORE MD/WASHINGTON DC
100 AM EDT THU AUG 25 2016

Note: "FAIR" indicates few or no clouds below 12,000 feet
with no significant weather and/or obstructions to visibility.
 TC=TEMPERATURE CELSIUS

 * =Non NWS site. Station does not report precipitation (e.g. rain,
    snow, etc.), thunder, or fog.

DCZ001-MDZ009-015-VAZ040>042-051-053>054-250600-
WASHINGTON METRO

CITY           SKY/WX    TMP DP  RH WIND       PRES   REMARKS
WASHINGTON NAT NOT AVBL
DULLES         NOT AVBL
ANDREWS AFB    PTCLDY    67  62  83 S7        30.17F
FT BELVOIR     PTCLDY    70  61  73 SE3       30.17F
QUANTICO       PTCLDY    75  63  66 SW13      30.18F
COLLEGE PARK*  CLEAR     70  61  73 CALM      30.16F
LEESBURG*      CLEAR     73  68  83 S8        30.16F
MANASSAS*      CLEAR     68  64  88 SE6       30.17S
GAITHERSBURG*  CLEAR     72  57  60 S8        30.20F

$$

MDZ006>007-011-014-250600-
BALTIMORE METRO

CITY           SKY/WX    TMP DP  RH WIND       PRES   REMARKS
BWI AIRPORT    PTCLDY    70  61  73 S3        30.17F
MD SCIENCE CTR   N/A     74  60  61 MISG      30.17F
MARTIN STATE   PTCLDY    73  64  73 S5        30.18F
ANNAPOLIS      CLEAR     74  63  68 S3        30.16F
FORT MEADE*    CLEAR     63  61  94 CALM      30.19F

$$

MDZ012-015-019>023-250600-
MARYLAND EASTERN SHORE

CITY           SKY/WX    TMP DP  RH WIND       PRES   REMARKS
OCEAN CITY     CLEAR     64  61  90 CALM      30.20F
SALISBURY      PTCLDY    62  59  90 CALM      30.20S
BAY BRIDGE AP* CLEAR     75  68  78 S8        30.17F
CAMBRIDGE*     CLEAR     63  61  94 SE3       30.18F
EASTON*        CLEAR     70  67  88 S6        30.22F

$$

MDZ017>025-250600-
SOUTHERN MARYLAND

CITY           SKY/WX    TMP DP  RH WIND       PRES   REMARKS
PATUXENT RIVER CLEAR     71  64  78 S6        30.18F
ST INIGOES     CLEAR     74  66  76 S8        30.18F
LEONARDTOWN*   CLEAR     70  63  78 CALM      30.20S

$$

MDZ003>005-250600-
NORTH CENTRAL MARYLAND

CITY           SKY/WX    TMP DP  RH WIND       PRES   REMARKS
FREDERICK*     NOT AVBL
HAGERSTOWN APT CLEAR     75  64  68 S10       30.14F

$$

MDZ501>502-250600-
WESTERN MARYLAND

CITY           SKY/WX    TMP DP  RH WIND       PRES   REMARKS
OAKLAND*       CLOUDY    64  61  88 SW8       30.22F
CUMBERLAND*    CLOUDY    70  68  94 CALM      30.16F

$$

VAZ025>031-250600-
SHENANDOAH VALLEY

CITY           SKY/WX    TMP DP  RH WIND       PRES   REMARKS
WINCHESTER*    CLEAR     72  64  78 CALM      30.15S
FRONT ROYAL*   FAIR      70  66  88 S5        30.14S
LURAY*         FAIR      72  68  88 S3        30.16F
NEW MARKET*    FAIR     N/A N/A N/A W6        30.16S
STAUNTON*      CLEAR     68  66  92 CALM      30.21F
WAYNESBORO*    FAIR      69  66  88 CALM      30.21F

$$

WVZ021-048>050-054>055-250600-
EASTERN WEST VIRGINIA PANHANDLE

CITY           SKY/WX    TMP DP  RH WIND       PRES   REMARKS
MARTINSBURG    CLEAR     71  65  81 S3        30.13F
PETERSBURG*    CLEAR     68  65  91 CALM      30.14S

$$

VAZ036>039-050-250600-
CENTRAL FOOTHILLS

CITY           SKY/WX    TMP DP  RH WIND       PRES   REMARKS
CHARLOTTESVILL CLEAR     72  66  81 S7        30.17F
CULPEPER*      CLEAR     68  67  97 CALM      30.17F
ORANGE*          N/A     70  70 100 CALM      30.19F
GORDONSVILLE*  FAIR      68  66  94 CALM      30.17F
WARRENTON*     FAIR      70  60  71 SE3       30.16F

$$

VAZ055>057-250600-
NORTH AND CENTRAL PIEDMONT

CITY           SKY/WX    TMP DP  RH WIND       PRES   REMARKS
FREDERICKSBRG* CLEAR     70  64  80 S8        30.17S
STAFFORD*      PTCLDY    68  62  79 SE3       30.21F

$$

NCZ024-NYZ072-PAZ021-071-VAZ022-071-250600-
OTHER REGIONAL OBSERVATIONS

CITY           SKY/WX    TMP DP  RH WIND       PRES   REMARKS
NEW YORK CITY    N/A     75  61  60 MISG        N/A
PHILADELPHIA   PTCLDY    71  63  75 S7        30.18F
PITTSBURGH     CLOUDY    74  65  73 S8        30.08F
ROANOKE        MOCLDY    72  69  90 SE6       30.22F
RICHMOND       PTCLDY    67  63  87 S3        30.19F
RALEIGH        PTCLDY    71  62  73 SE5       30.21F

$$

ANZ530>537-250600-
MARINE OBSERVATIONS

STATION/POSITION TIME  TEMP    WIND        PRES
                       AIR SEA DIR/SP/G
                 (UTC) (F)     (DEG/KT/KT) (MB)
THOMAS PT LIGHT  0500   76 81  200/ 18/ 19 1022.8F
BALT KEY BRIDGE  0448   74     190/  8/ 10 1021.5F
COVE POINT       0448   75     210/ 11/ 14 1022.6F
LEWISETTA        0448   73 82  210/  8/  9 1021.7F
SOLOMONS ISLAND  0448   74 84  180/  5/  5   N/A
PINEY POINT      0448          200/ 14/ 16   N/A

$$




USA.gov is the U.S. government's official web portal to all federal, state and local government web resources and services.